Presure
170 167 157 136 126 138 141 142 134 129 138 149 134 131 135 156 145 150 155 175 167 164 162 159 168 198 184 197 155 184 191 177 176 187 162 195 174 149 162 145 174 138 178 179 164
167 171 161 126 134 136 125 130 139 146 151 148 137 130 144 158 158 151 153 158 164 159 160 159 189 195 184 193 190 187 192 122 119 94 145 112 166 156 171 180 180 172 177 164 161
157 174 164 156 140 155 122 134 169 132 137 132 133 150 145 164 151 126 150 181 170 156 160 166 188 192 189 190 191 193 102 181 94 94 179 150 166 190 169 162 169 148 179 166 173
193 173 158 165 197 148 148 126 138 168 153 142 138 162 159 141 159 153 151 152 160 158 169 171 198 190 191 185 185 190 189 166 96 156 170 87 157 164 165 154 153 161 167 167 136
180 159 155 146 143 141 151 134 127 141 147 170 162 141 168 135 147 144 158 150 157 161 162 168 194 188 183 163 181 190 90 177 140 152 153 163 161 165 158 156 168 170 167 154 152
171 182 146 163 140 135 163 139 133 160 141 143 139 151 151 173 163 167 148 160 160 166 169 189 189 181 173 173 185 90 188 162 141 154 151 154 166 158 157 157 156 153 161 154 156
148 162 177 107 136 156 141 89 145 140 156 165 148 146 151 162 180 162 149 161 173 156 165 196 184 173 176 168 176 185 185 168 158 166 165 146 158 163 153 149 142 153 151 149 154
178 183 88 166 148 155 153 145 165 161 136 159 162 146 147 157 171 148 163 175 153 161 172 191 183 173 174 160 149 170 185 178 160 168 168 152 143 156 151 141 137 145 150 153 151
179 175 158 167 151 170 146 150 159 144 157 153 149 149 154 158 168 159 164 153 156 157 167 190 181 176 177 183 173 166 193 90 156 166 156 142 141 149 151 137 141 151 153 146 158
151 151 158 164 142 160 132 143 156 146 154 142 149 158 121 149 146 174 173 171 160 163 168 189 179 172 176 167 172 166 156 163 160 143 146 168 148 151 140 138 145 147 144 143 146
172 132 169 149 143 160 139 154 149 148 142 152 162 147 106 162 163 159 160 162 153 167 165 193 179 172 170 167 159 155 161 164 161 149 150 148 142 141 144 160 152 145 155 152 158
165 142 126 147 166 145 149 165 152 155 150 148 151 157 158 162 166 170 165 163 176 167 156 188 179 172 164 173 161 157 163 163 157 160 163 152 149 157 146 155 147 156 155 159 115
175 150 195 164 135 132 167 155 152 154 139 147 156 167 161 165 170 163 153 166 155 174 166 186 176 171 166 167 166 158 156 155 151 159 145 154 153 144 156 151 152 153 153 156 177
163 143 160 172 173 158 141 142 162 153 159 164 167 159 178 165 160 173 172 158 169 163 190 185 175 166 168 161 158 162 158 158 151 150 146 147 153 149 151 152 154 154 154 158 169
168 171 167 139 143 168 167 163 190 144 163 178 160 164 171 170 129 164 160 165 169 165 180 177 176 170 164 160 158 160 157 154 155 155 154 153 150 156 153 148 160 153 151 164 162
130 158 160 138 189 155 168 191 191 171 189 187 162 185 158 160 166 160 164 164 170 156 189 176 175 168 168 167 164 156 161 156 146 151 149 155 143 154 146 156 149 159 157 179 149
154 172 187 143 152 165 171 197 171 184 162 159 166 157 163 155 174 121 166 167 175 187 204 183 176 169 168 166 161 158 155 154 157 157 152 157 154 149 148 161 158 166 165 160 153
180 201 194 201 170 169 170 179 182 201 178 168 169 87 164 166 170 159 166 168 170 164 150 182 191 173 177 158 166 158 160 156 153 153 152 155 153 155 162 163 159 164 149 165 157
199 193 182 176 175 187 190 181 162 159 163 159 172 159 157 171 175 166 181 175 178 170 158 176 181 185 188 169 164 174 163 174 165 158 158 158 162 158 165 163 163 161 166 162 163
195 193 194 194 193 149 183 187 184 169 181 160 152 164 180 176 181 174 170 178 171 177 162 167 164 152 180 177 173 168 168 169 174 170 164 156 156 154 161 152 162 161 142 167 106
188 189 192 189 182 181 182 167 174 164 175 160 159 157 165 164 153 168 173 168 174 170 174 164 175 165 186 170 171 174 170 181 182 177 176 167 162 157 167 143 161 165 151 127 160
190 189 184 184 189 177 174 175 172 168 184 170 177 169 159 181 158 156 151 158 172 167 143 144 159 165 173 147 146 143 144 159 169 146 141 175 166 134 138 166 169 151 165 161 159
190 194 189 183 177 185 192 177 172 165 144 170 173 179 174 157 158 151 159 182 154 177 172 173 166 155 162 164 168 161 163 153 162 172 169 169 164 168 169 169 167 156 152 157 168
192 179 183 180 178 182 182 180 174 168 184 184 178 171 184 154 183 169 163 168 187 147 154 157 167 168 164 167 163 161 170 135 164 161 163 161 164 158 169 174 162 163 164 160 160
205 191 188 191 184 185 161 174 197 176 152 160 166 170 171 156 166 182 178 172 160 186 191 184 177 174 176 176 175 170 164 160 170 171 167 159 161 161 162 162 159 159 171 168 168
216 199 201 211 205 185 180 187 188 187 177 182 180 180 174 172 176 153 152 163 167 191 181 188 189 184 179 181 169 181 152 166 170 165 167 169 172 175 168 171 168 177 182 171 169
265 286 236 202 196 199 198 194 201 190 177 171 167 170 169 180 174 206 203 202 196 203 194 195 194 180 172 175 180 168 162 179 175 176 138 175 169 116 173 171 134 185 150 168 173
Wind_Speed
63 66 57 40 33 32 29 32 34 33 41 33 42 32 40 40 45 43 45 64 50 50 49 47 48 41 39 32 27 27 25 24 24 22 22 19 22 25 22 22 19 29 20 20 20
60 62 60 36 36 34 30 38 34 39 31 29 46 32 44 40 42 43 45 48 52 48 48 49 52 42 38 32 29 28 25 21 21 28 27 30 23 24 23 23 23 23 22 25 26
40 60 57 43 41 40 28 39 43 41 42 37 39 40 46 47 44 31 42 59 52 49 50 53 52 41 35 32 30 28 22 23 26 30 24 30 26 24 26 29 27 30 24 28 29
64 58 39 47 61 39 38 37 41 41 29 48 45 39 39 41 43 43 43 46 54 52 57 54 41 40 34 32 30 28 25 27 28 27 25 34 29 28 28 32 33 32 30 32 39
48 46 46 40 40 41 36 44 38 41 42 48 43 38 48 36 40 38 48 43 53 53 52 55 38 38 37 34 30 27 26 24 29 30 27 29 29 28 30 31 31 32 33 38 40
63 57 37 44 43 43 37 43 43 40 48 46 31 41 42 56 51 50 42 53 55 54 55 51 39 37 35 33 29 25 22 26 30 33 34 33 29 32 34 35 36 37 38 42 44
38 42 65 22 43 54 43 17 33 48 38 42 43 43 40 47 54 46 44 53 50 51 54 41 39 37 35 33 29 24 21 25 30 30 32 37 33 32 37 41 43 44 46 48 48
71 70 13 44 50 29 32 42 51 33 49 35 37 44 47 46 52 42 52 52 47 52 53 40 36 37 35 33 29 29 21 25 29 30 28 38 42 35 39 45 49 48 47 46 49
70 62 44 39 40 44 39 38 29 42 40 34 40 43 41 46 48 47 52 47 49 51 52 40 37 36 35 34 31 29 24 39 32 29 32 43 46 43 41 50 50 44 42 47 47
31 32 30 46 49 34 48 45 31 41 38 44 41 43 35 43 42 51 51 50 49 53 51 38 37 37 34 32 31 30 33 29 31 42 42 29 40 40 46 49 46 45 45 47 46
61 50 51 44 49 36 45 31 38 39 44 39 55 43 34 54 51 51 50 51 47 54 50 36 37 37 34 33 34 33 33 29 29 37 39 43 46 46 45 42 44 46 47 46 53
49 54 44 53 46 47 41 48 37 41 40 42 42 48 50 52 54 52 51 51 54 53 50 38 38 36 36 34 36 37 34 32 35 35 35 40 44 44 48 47 48 50 52 55 47
58 56 52 47 54 52 55 38 52 48 49 42 50 57 52 52 52 50 46 50 49 53 50 40 39 39 37 37 35 38 39 40 40 37 43 42 45 47 49 51 53 56 54 57 57
48 51 51 71 72 41 49 53 50 45 52 57 61 52 53 52 50 52 50 50 53 52 42 39 40 42 38 40 42 40 41 41 42 43 47 48 50 49 51 53 55 58 61 62 60
58 69 60 56 51 60 58 54 75 48 56 64 50 53 54 50 42 50 49 51 53 49 46 44 42 42 42 43 45 45 44 45 43 44 48 49 53 52 53 53 56 57 59 64 61
50 50 56 52 72 47 62 64 63 60 58 58 50 51 50 52 55 50 53 54 54 49 46 49 44 46 46 43 44 47 45 48 43 48 51 52 50 55 50 58 55 59 60 60 55
67 70 75 52 53 58 65 59 59 58 49 48 52 49 52 47 56 43 54 55 52 47 39 48 47 47 48 45 47 50 50 51 53 52 55 56 58 57 53 63 63 64 63 57 57
76 67 67 64 65 65 63 65 61 53 54 55 50 30 54 56 57 53 58 58 55 52 47 46 47 53 53 48 50 50 52 53 52 54 57 61 60 66 64 63 66 66 57 61 60
68 70 70 65 66 69 65 64 52 51 51 51 57 53 52 60 57 57 52 56 52 51 53 48 48 48 51 54 53 57 56 58 56 58 60 64 66 71 66 63 67 66 67 65 65
63 64 63 61 56 50 63 63 59 57 60 54 51 57 56 59 58 57 61 59 55 52 53 54 53 55 52 54 55 56 56 56 55 55 59 60 61 73 65 57 63 66 55 67 53
63 62 59 60 61 62 62 56 61 56 58 55 55 55 56 55 47 59 65 58 59 57 57 55 54 61 53 56 57 56 56 56 57 59 57 57 62 78 69 61 62 64 71 58 68
62 62 63 64 61 62 62 63 63 59 64 62 65 61 54 66 56 54 55 55 62 61 52 53 57 63 61 62 62 63 63 63 62 60 60 60 56 64 69 69 63 65 71 71 73
64 65 65 65 63 65 64 64 63 56 52 64 64 67 65 53 55 56 60 71 59 68 63 61 62 64 66 69 70 68 70 72 71 68 69 62 65 75 78 75 69 72 72 71 74
63 62 66 65 65 68 67 68 65 60 69 68 66 64 69 56 65 64 66 67 69 57 64 65 70 70 69 70 69 71 75 47 74 75 72 72 68 78 81 78 76 76 75 78 79
65 67 68 69 70 71 55 70 74 69 49 55 58 63 63 60 64 69 71 71 68 71 73 72 73 73 76 77 75 73 71 85 83 77 75 77 74 83 85 81 81 79 81 81 83
59 61 64 69 71 70 68 74 74 72 69 73 72 71 66 70 70 59 57 66 69 77 79 78 77 79 78 82 68 75 73 89 85 83 84 82 76 90 85 86 83 85 83 83 85
54 58 63 64 66 68 71 70 72 67 63 62 61 63 63 72 67 77 78 78 74 79 82 81 82 75 65 81 81 66 80 91 90 92 47 88 83 42 88 84 52 86 65 77 85
Wind_Direction
252 254 251 251 262 265 268 263 272 284 280 285 290 303 304 314 309 320 333 334 332 333 336 333 334 329 329 339 326 338 346 343 344 353 341 342 349 333 339 329 342 318 328 326 321
256 254 256 256 256 261 269 271 268 280 280 305 284 300 301 317 321 320 326 328 328 329 332 329 328 324 328 334 336 338 341 322 319 309 326 323 341 338 340 344 336 339 335 329 325
253 256 256 245 258 257 273 265 285 275 276 284 287 309 295 320 312 304 323 322 325 327 329 325 328 323 326 332 336 338 312 340 310 311 347 328 341 342 340 338 342 330 337 335 338
246 248 248 257 263 252 256 271 268 289 291 278 284 316 311 299 317 319 321 326 326 326 319 323 323 321 326 330 332 333 331 329 312 333 336 314 332 340 339 336 334 337 338 336 324
254 248 247 246 243 247 250 259 272 268 276 303 302 294 316 298 312 310 322 323 324 319 323 324 320 321 325 322 326 331 306 332 321 329 329 331 334 337 334 333 341 342 340 334 331
256 254 235 250 256 260 267 254 266 290 270 273 296 296 302 317 313 317 314 320 318 317 318 322 317 320 322 321 324 303 324 324 322 327 322 327 334 333 333 335 336 333 338 334 332
240 257 261 261 266 267 247 301 288 264 292 304 282 287 305 314 309 311 313 317 311 319 319 317 313 314 319 316 318 324 319 318 324 324 325 322 331 335 333 332 329 336 335 333 332
254 252 261 258 241 259 264 256 282 291 272 298 305 287 295 312 307 304 312 308 318 310 312 313 310 309 315 310 313 317 316 310 323 320 322 324 322 330 330 327 326 330 332 331 328
250 259 239 264 249 279 268 270 283 266 289 288 285 289 304 306 305 309 310 311 312 312 312 309 308 307 312 313 314 312 316 319 318 319 322 318 320 327 328 325 328 327 327 327 331
226 230 252 258 240 280 262 265 273 274 284 275 291 302 296 300 301 299 299 303 311 308 310 304 305 304 309 308 310 310 311 316 320 316 316 319 318 320 321 323 322 324 325 323 325
253 250 264 235 251 269 262 270 263 266 268 290 295 287 290 300 303 304 305 306 311 306 310 299 300 302 307 303 305 311 310 312 312 312 312 314 317 319 318 322 322 321 326 327 328
256 257 265 252 273 244 255 286 271 280 283 280 293 296 294 298 299 296 300 303 300 305 310 299 296 297 301 301 303 305 308 311 312 314 313 312 314 317 318 323 321 326 326 326 311
254 261 250 264 252 259 282 273 275 282 269 281 293 292 293 296 292 297 299 300 306 302 307 297 295 297 300 300 298 301 304 308 311 315 311 312 313 317 319 323 324 324 325 326 324
256 239 256 264 269 270 254 265 282 275 285 288 288 289 285 291 294 290 296 300 299 305 298 297 292 297 297 298 300 302 304 306 312 313 311 316 315 317 321 322 321 322 323 324 323
258 257 260 250 253 274 278 277 276 268 283 281 284 286 283 286 293 291 297 297 297 301 291 294 291 292 294 296 299 301 304 306 312 311 311 313 314 316 316 318 317 321 320 320 321
261 256 262 257 266 266 272 270 272 276 273 272 281 274 287 289 288 293 296 295 296 302 281 288 290 291 292 293 295 301 301 304 309 311 310 312 311 313 315 315 315 317 317 319 319
257 260 259 264 265 268 271 264 272 270 273 277 276 282 282 292 283 293 292 293 296 296 291 281 289 290 291 292 294 298 301 303 306 307 308 309 309 310 313 312 313 315 316 315 316
256 255 259 257 263 266 269 270 267 260 268 274 269 279 279 284 283 292 290 291 293 297 297 293 286 290 288 296 292 296 296 300 305 306 307 307 308 307 311 312 313 315 309 314 313
253 255 259 260 261 261 261 264 266 270 272 274 274 279 284 281 280 288 285 289 290 293 298 293 293 291 290 291 294 291 294 293 294 299 302 304 305 304 307 310 311 311 311 312 313
252 254 256 258 258 265 262 261 262 270 269 273 276 279 273 277 276 284 291 288 293 292 297 297 297 296 291 290 290 293 294 294 294 294 298 302 306 299 303 308 308 309 307 309 312
251 254 257 257 259 259 259 264 266 268 267 273 277 277 282 287 293 288 287 293 291 294 292 295 295 295 290 294 293 294 296 293 294 294 295 298 303 296 300 307 305 307 306 309 309
253 253 256 259 258 259 262 264 266 269 265 270 272 276 284 275 286 290 289 294 290 294 294 295 297 295 295 298 299 301 301 300 298 298 300 297 299 307 308 301 303 303 303 306 306
255 255 256 258 262 261 258 263 265 267 273 270 272 273 276 286 289 290 291 284 294 289 293 293 295 294 296 296 297 300 301 300 301 299 297 304 296 300 300 300 304 302 305 305 304
258 262 262 263 266 267 268 269 269 274 269 269 273 278 275 285 277 283 293 291 282 294 296 296 292 294 294 295 296 299 297 306 295 296 299 300 300 299 295 297 301 302 302 303 305
260 263 264 263 264 265 265 272 267 275 267 274 274 280 280 285 289 286 284 288 295 283 279 283 285 290 288 290 294 297 297 297 295 297 297 295 299 293 296 301 303 304 302 302 302
258 260 262 262 264 265 268 269 270 271 275 278 278 281 282 283 285 284 285 288 291 282 290 284 282 285 289 289 295 296 297 291 296 297 297 295 294 290 294 296 299 299 297 300 300
262 262 259 263 265 264 263 265 269 269 273 275 278 280 282 281 281 276 279 280 283 280 283 284 283 286 290 289 292 300 291 293 290 291 328 292 292 317 293 298 323 295 308 300 298